Time,TemperatureF,DewpointF,PressureIn,WindDirection,WindDirectionDegrees,WindSpeedMPH,WindSpeedGustMPH,Humidity,HourlyPrecipIn,Conditions,Clouds,dailyrainin,SoftwareType,DateUTC
2013-10-06 00:00:00,47.1,36.7,28.76,WSW,254,0.0,0.0,67,0.00,,---,0.00,VWS V14.01,2013-10-06 04:00:00,
2013-10-06 00:01:00,47.1,36.7,28.76,WSW,254,0.0,0.0,67,0.00,,---,0.00,VWS V14.01,2013-10-06 04:01:00,
2013-10-06 00:02:00,47.1,36.7,28.76,WSW,254,0.0,0.0,67,0.00,,---,0.00,VWS V14.01,2013-10-06 04:02:00,
2013-10-06 00:03:00,47.1,36.7,28.76,WSW,254,0.0,0.0,67,0.00,,---,0.00,VWS V14.01,2013-10-06 04:03:00,
2013-10-06 00:04:00,47.1,36.7,28.76,WSW,254,0.0,0.0,67,0.00,,---,0.00,VWS V14.01,2013-10-06 04:04:00,
2013-10-06 00:05:00,47.1,37.1,28.76,WSW,255,0.0,0.0,68,0.00,,---,0.00,VWS V14.01,2013-10-06 04:05:00,
2013-10-06 00:06:00,47.1,37.1,28.76,West,271,0.0,0.0,68,0.00,,---,0.00,VWS V14.01,2013-10-06 04:06:00,
2013-10-06 00:07:00,47.1,37.1,28.76,West,270,0.0,0.0,68,0.00,,---,0.00,VWS V14.01,2013-10-06 04:07:00,
2013-10-06 00:08:00,47.1,37.1,28.76,WSW,252,0.0,0.0,68,0.00,,---,0.00,VWS V14.01,2013-10-06 04:08:00,
2013-10-06 00:09:00,47.1,37.1,28.76,WSW,252,0.0,0.0,68,0.00,,---,0.00,VWS V14.01,2013-10-06 04:09:00,
2013-10-06 00:10:00,46.9,36.9,28.76,WSW,252,0.0,0.0,68,0.00,,---,0.00,VWS V14.01,2013-10-06 04:10:00,
2013-10-06 00:11:00,46.9,36.9,28.76,WSW,252,0.0,0.0,68,0.00,,---,0.00,VWS V14.01,2013-10-06 04:11:00,
2013-10-06 00:12:00,46.9,36.9,28.76,WSW,253,0.0,0.0,68,0.00,,---,0.00,VWS V14.01,2013-10-06 04:12:00,
2013-10-06 00:13:00,46.9,36.9,28.76,WSW,257,0.0,0.0,68,0.00,,---,0.00,VWS V14.01,2013-10-06 04:13:00,
2013-10-06 00:14:00,46.9,36.6,28.76,WSW,257,0.0,0.0,67,0.00,,---,0.00,VWS V14.01,2013-10-06 04:14:00,
2013-10-06 00:15:00,46.9,36.6,28.76,WNW,282,0.0,0.0,67,0.00,,---,0.00,VWS V14.01,2013-10-06 04:15:00,
2013-10-06 00:16:00,46.8,36.4,28.76,West,278,3.6,4.5,67,0.00,,---,0.00,VWS V14.01,2013-10-06 04:16:00,
2013-10-06 00:17:00,46.8,36.4,28.76,West,278,0.0,3.6,67,0.00,,---,0.00,VWS V14.01,2013-10-06 04:17:00,
2013-10-06 00:18:00,46.8,36.4,28.76,WNW,294,3.6,3.6,67,0.00,,---,0.00,VWS V14.01,2013-10-06 04:18:00,
2013-10-06 00:19:00,46.8,36.4,28.76,West,265,3.1,3.6,67,0.00,,---,0.00,VWS V14.01,2013-10-06 04:19:00,
2013-10-06 00:20:00,46.8,36.4,28.76,WNW,284,0.0,4.0,67,0.00,,---,0.00,VWS V14.01,2013-10-06 04:20:00,
2013-10-06 00:21:00,46.8,36.4,28.76,WNW,289,0.0,0.0,67,0.00,,---,0.00,VWS V14.01,2013-10-06 04:21:00,
2013-10-06 00:22:00,46.8,36.4,28.76,West,279,3.6,3.6,67,0.00,,---,0.00,VWS V14.01,2013-10-06 04:22:00,
2013-10-06 00:23:00,46.8,36.4,28.76,WNW,300,3.1,4.0,67,0.00,,---,0.00,VWS V14.01,2013-10-06 04:23:00,
2013-10-06 00:24:00,46.8,36.4,28.76,West,266,0.0,3.1,67,0.00,,---,0.00,VWS V14.01,2013-10-06 04:24:00,
2013-10-06 00:25:00,46.8,36.4,28.76,West,265,0.0,0.0,67,0.00,,---,0.00,VWS V14.01,2013-10-06 04:25:00,
2013-10-06 00:26:00,46.8,36.4,28.76,West,269,3.1,3.1,67,0.00,,---,0.00,VWS V14.01,2013-10-06 04:26:00,
2013-10-06 00:27:00,46.8,36.4,28.76,West,269,0.0,3.1,67,0.00,,---,0.00,VWS V14.01,2013-10-06 04:27:00,
2013-10-06 00:28:00,46.6,36.2,28.76,WSW,245,0.0,4.0,67,0.00,,---,0.00,VWS V14.01,2013-10-06 04:28:00,
2013-10-06 00:29:00,46.6,36.2,28.76,West,259,2.7,3.6,67,0.00,,---,0.00,VWS V14.01,2013-10-06 04:29:00,
2013-10-06 00:30:00,46.6,36.2,28.76,West,270,0.0,4.9,67,0.00,,---,0.00,VWS V14.01,2013-10-06 04:30:00,
2013-10-06 00:31:00,46.6,36.2,28.76,West,277,0.0,0.0,67,0.00,,---,0.00,VWS V14.01,2013-10-06 04:31:00,
2013-10-06 00:32:00,46.6,36.2,28.76,West,276,0.0,3.1,67,0.00,,---,0.00,VWS V14.01,2013-10-06 04:32:00,
2013-10-06 00:33:00,46.6,36.6,28.76,West,276,0.0,2.7,68,0.00,,---,0.00,VWS V14.01,2013-10-06 04:33:00,
2013-10-06 00:34:00,46.4,36.4,28.76,West,276,0.0,0.0,68,0.00,,---,0.00,VWS V14.01,2013-10-06 04:34:00,
2013-10-06 00:35:00,46.4,36.4,28.76,West,276,0.0,2.7,68,0.00,,---,0.00,VWS V14.01,2013-10-06 04:35:00,
2013-10-06 00:36:00,46.4,36.4,28.76,West,276,0.0,0.0,68,0.00,,---,0.00,VWS V14.01,2013-10-06 04:36:00,
2013-10-06 00:37:00,46.4,36.4,28.76,West,276,0.0,0.0,68,0.00,,---,0.00,VWS V14.01,2013-10-06 04:37:00,
2013-10-06 00:38:00,46.4,36.4,28.76,West,276,0.0,0.0,68,0.00,,---,0.00,VWS V14.01,2013-10-06 04:38:00,
2013-10-06 00:39:00,46.4,36.4,28.76,West,276,0.0,0.0,68,0.00,,---,0.00,VWS V14.01,2013-10-06 04:39:00,
2013-10-06 00:40:00,46.2,36.6,28.76,West,276,0.0,0.0,69,0.00,,---,0.00,VWS V14.01,2013-10-06 04:40:00,
2013-10-06 00:41:00,46.2,36.6,28.76,West,276,0.0,0.0,69,0.00,,---,0.00,VWS V14.01,2013-10-06 04:41:00,
2013-10-06 00:42:00,46.2,36.6,28.76,West,276,0.0,0.0,69,0.00,,---,0.00,VWS V14.01,2013-10-06 04:42:00,
2013-10-06 00:43:00,46.2,36.6,28.76,West,267,0.0,3.6,69,0.00,,---,0.00,VWS V14.01,2013-10-06 04:43:00,
2013-10-06 00:44:00,46.0,36.5,28.76,West,267,0.0,0.0,69,0.00,,---,0.00,VWS V14.01,2013-10-06 04:44:00,
2013-10-06 00:45:00,46.0,36.5,28.76,West,267,0.0,0.0,69,0.00,,---,0.00,VWS V14.01,2013-10-06 04:45:00,
2013-10-06 00:46:00,46.0,36.5,28.76,WSW,243,0.0,2.7,69,0.00,,---,0.00,VWS V14.01,2013-10-06 04:46:00,
2013-10-06 00:47:00,46.0,36.5,28.76,West,271,0.0,4.5,69,0.00,,---,0.00,VWS V14.01,2013-10-06 04:47:00,
2013-10-06 00:48:00,46.0,36.5,28.76,West,271,0.0,2.7,69,0.00,,---,0.00,VWS V14.01,2013-10-06 04:48:00,
2013-10-06 00:49:00,46.0,36.8,28.76,South,184,4.5,4.5,70,0.00,,---,0.00,VWS V14.01,2013-10-06 04:49:00,
2013-10-06 00:50:00,45.9,36.6,28.76,SW,215,0.0,4.5,70,0.00,,---,0.00,VWS V14.01,2013-10-06 04:50:00,
2013-10-06 00:51:00,45.9,36.6,28.76,SW,216,0.0,0.0,70,0.00,,---,0.00,VWS V14.01,2013-10-06 04:51:00,
2013-10-06 00:52:00,45.9,36.6,28.76,WSW,246,0.0,3.1,70,0.00,,---,0.00,VWS V14.01,2013-10-06 04:52:00,
2013-10-06 00:53:00,46.0,36.5,28.76,WSW,242,3.6,5.4,69,0.00,,---,0.00,VWS V14.01,2013-10-06 04:53:00,
2013-10-06 00:54:00,45.9,36.3,28.76,WSW,242,0.0,3.6,69,0.00,,---,0.00,VWS V14.01,2013-10-06 04:54:00,
2013-10-06 00:55:00,46.0,36.5,28.76,West,264,0.0,0.0,69,0.00,,---,0.00,VWS V14.01,2013-10-06 04:55:00,
2013-10-06 00:56:00,45.9,36.3,28.76,West,263,0.0,0.0,69,0.00,,---,0.00,VWS V14.01,2013-10-06 04:56:00,
2013-10-06 00:57:00,45.9,36.3,28.76,WSW,250,0.0,2.7,69,0.00,,---,0.00,VWS V14.01,2013-10-06 04:57:00,
2013-10-06 00:58:00,45.9,36.3,28.76,WSW,250,0.0,0.0,69,0.00,,---,0.00,VWS V14.01,2013-10-06 04:58:00,
2013-10-06 00:59:00,45.9,36.3,28.76,WSW,250,0.0,3.1,69,0.00,,---,0.00,VWS V14.01,2013-10-06 04:59:00,
2013-10-06 01:00:00,45.9,36.3,28.76,WSW,250,0.0,0.0,69,0.00,,---,0.00,VWS V14.01,2013-10-06 05:00:00,
2013-10-06 01:01:00,45.9,36.3,28.76,WSW,250,0.0,0.0,69,0.00,,---,0.00,VWS V14.01,2013-10-06 05:01:00,
2013-10-06 01:02:00,45.9,36.3,28.76,WSW,250,0.0,0.0,69,0.00,,---,0.00,VWS V14.01,2013-10-06 05:02:00,
2013-10-06 01:03:00,45.9,36.3,28.76,WSW,250,0.0,5.8,69,0.00,,---,0.00,VWS V14.01,2013-10-06 05:03:00,
2013-10-06 01:04:00,45.9,36.3,28.76,WSW,250,0.0,2.7,69,0.00,,---,0.00,VWS V14.01,2013-10-06 05:04:00,
2013-10-06 01:05:00,45.9,36.6,28.76,West,259,0.0,3.1,70,0.00,,---,0.00,VWS V14.01,2013-10-06 05:05:00,
2013-10-06 01:10:00,45.5,36.3,28.76,West,259,0.0,0.0,70,0.00,,---,0.00,VWS V14.01,2013-10-06 05:10:00,
2013-10-06 01:12:00,45.5,36.3,28.76,WSW,244,0.0,0.0,70,0.00,,---,0.00,VWS V14.01,2013-10-06 05:12:00,
2013-10-06 01:13:00,45.3,36.1,28.76,WSW,244,0.0,0.0,70,0.00,,---,0.00,VWS V14.01,2013-10-06 05:13:00,
2013-10-06 01:14:00,45.3,36.1,28.76,WSW,244,0.0,0.0,70,0.00,,---,0.00,VWS V14.01,2013-10-06 05:14:00,
2013-10-06 01:16:00,45.3,36.1,28.76,WSW,244,0.0,0.0,70,0.00,,---,0.00,VWS V14.01,2013-10-06 05:16:00,
2013-10-06 01:18:00,66.6,65.1,28.82,WSW,245,0.0,0.0,95,0.00,,---,0.00,VWS V14.01,2013-10-06 05:18:00,
2013-10-06 01:19:00,45.3,36.5,28.76,WSW,244,0.0,0.0,71,0.00,,---,0.00,VWS V14.01,2013-10-06 05:19:00,
2013-10-06 01:20:00,45.3,36.5,28.76,WSW,244,0.0,3.1,71,0.00,,---,0.00,VWS V14.01,2013-10-06 05:20:00,
2013-10-06 01:22:00,45.1,36.3,28.76,SW,236,0.0,4.5,71,0.00,,---,0.00,VWS V14.01,2013-10-06 05:22:00,
2013-10-06 01:24:00,45.1,36.3,28.76,WSW,237,0.0,0.0,71,0.00,,---,0.00,VWS V14.01,2013-10-06 05:24:00,
2013-10-06 01:25:00,66.6,64.8,28.82,SE,124,0.0,2.7,94,0.00,,---,0.00,VWS V14.01,2013-10-06 05:25:00,
2013-10-06 01:27:00,45.1,36.7,28.76,SW,232,0.0,0.0,72,0.00,,---,0.00,VWS V14.01,2013-10-06 05:27:00,
2013-10-06 01:28:00,45.1,36.7,28.76,WSW,237,4.9,5.8,72,0.00,,---,0.00,VWS V14.01,2013-10-06 05:28:00,
2013-10-06 01:29:00,45.1,36.7,28.76,WSW,237,0.0,4.9,72,0.00,,---,0.00,VWS V14.01,2013-10-06 05:29:00,
2013-10-06 01:30:00,45.1,36.7,28.76,WSW,237,0.0,3.6,72,0.00,,---,0.00,VWS V14.01,2013-10-06 05:30:00,
2013-10-06 01:32:00,45.1,37.0,28.76,WSW,239,3.1,4.5,73,0.00,,---,0.00,VWS V14.01,2013-10-06 05:32:00,
2013-10-06 01:33:00,45.1,37.0,28.76,WSW,239,0.0,3.1,73,0.00,,---,0.00,VWS V14.01,2013-10-06 05:33:00,
2013-10-06 01:34:00,45.1,37.0,28.76,WSW,239,0.0,0.0,73,0.00,,---,0.00,VWS V14.01,2013-10-06 05:34:00,
2013-10-06 01:35:00,66.4,64.6,28.82,WSW,249,0.0,0.0,94,0.00,,---,0.00,VWS V14.01,2013-10-06 05:35:00,
2013-10-06 01:36:00,45.1,37.0,28.76,WNW,295,0.0,3.1,73,0.00,,---,0.00,VWS V14.01,2013-10-06 05:36:00,
2013-10-06 01:38:00,45.0,36.8,28.76,SW,230,0.0,3.6,73,0.00,,---,0.00,VWS V14.01,2013-10-06 05:38:00,
2013-10-06 01:39:00,45.0,36.8,28.76,SW,231,0.0,3.6,73,0.00,,---,0.00,VWS V14.01,2013-10-06 05:39:00,
2013-10-06 01:42:00,44.8,36.7,28.76,WSW,243,0.0,4.9,73,0.00,,---,0.00,VWS V14.01,2013-10-06 05:42:00,
2013-10-06 01:43:00,66.2,64.4,28.82,East,98,0.0,2.7,94,0.00,,---,0.00,VWS V14.01,2013-10-06 05:43:00,
2013-10-06 01:44:00,44.8,36.7,28.76,WSW,247,0.0,3.1,73,0.00,,---,0.00,VWS V14.01,2013-10-06 05:44:00,
2013-10-06 01:46:00,44.8,36.7,28.76,WSW,245,0.0,0.0,73,0.00,,---,0.00,VWS V14.01,2013-10-06 05:46:00,
2013-10-06 01:48:00,66.2,64.4,28.82,SSE,149,0.0,0.0,94,0.00,,---,0.00,VWS V14.01,2013-10-06 05:48:00,
2013-10-06 01:50:00,44.8,36.7,28.76,WSW,245,0.0,3.1,73,0.00,,---,0.00,VWS V14.01,2013-10-06 05:50:00,
2013-10-06 01:52:00,44.8,36.7,28.76,WSW,245,0.0,2.7,73,0.00,,---,0.00,VWS V14.01,2013-10-06 05:52:00,
2013-10-06 01:53:00,66.2,64.4,28.82,SE,143,0.0,2.7,94,0.00,,---,0.00,VWS V14.01,2013-10-06 05:53:00,
2013-10-06 01:54:00,44.6,36.5,28.76,WSW,245,0.0,0.0,73,0.00,,---,0.00,VWS V14.01,2013-10-06 05:54:00,
2013-10-06 01:55:00,44.6,36.5,28.76,WSW,245,0.0,0.0,73,0.00,,---,0.00,VWS V14.01,2013-10-06 05:55:00,
2013-10-06 01:57:00,44.6,36.5,28.76,West,277,0.0,4.5,73,0.00,,---,0.00,VWS V14.01,2013-10-06 05:57:00,
2013-10-06 01:58:00,66.0,64.2,28.82,SSE,154,0.0,0.0,94,0.00,,---,0.00,VWS V14.01,2013-10-06 05:58:00,
2013-10-06 02:00:00,44.6,36.8,28.76,SW,233,0.0,0.0,74,0.00,,---,0.00,VWS V14.01,2013-10-06 06:00:00,
2013-10-06 02:02:00,44.6,36.8,28.76,SW,233,0.0,0.0,74,0.00,,---,0.00,VWS V14.01,2013-10-06 06:02:00,
2013-10-06 02:03:00,66.0,63.9,28.82,WSW,242,0.0,3.1,93,0.00,,---,0.00,VWS V14.01,2013-10-06 06:03:00,
2013-10-06 02:07:00,44.4,36.7,28.76,West,262,0.0,0.0,74,0.00,,---,0.00,VWS V14.01,2013-10-06 06:07:00,
2013-10-06 02:08:00,66.0,63.9,28.82,WSW,248,0.0,5.4,93,0.00,,---,0.00,VWS V14.01,2013-10-06 06:08:00,
2013-10-06 02:12:00,44.4,37.0,28.76,WNW,283,0.0,0.0,75,0.00,,---,0.00,VWS V14.01,2013-10-06 06:12:00,
2013-10-06 02:13:00,66.0,63.9,28.82,SSW,196,0.0,0.0,93,0.00,,---,0.00,VWS V14.01,2013-10-06 06:13:00,
2013-10-06 02:15:00,44.4,37.0,28.76,WNW,296,0.0,0.0,75,0.00,,---,0.00,VWS V14.01,2013-10-06 06:15:00,
2013-10-06 02:16:00,44.4,37.0,28.76,WSW,249,0.0,0.0,75,0.00,,---,0.00,VWS V14.01,2013-10-06 06:16:00,
2013-10-06 02:18:00,66.2,64.1,28.82,WSW,246,0.0,4.0,93,0.00,,---,0.00,VWS V14.01,2013-10-06 06:18:00,
2013-10-06 02:19:00,44.4,37.3,28.76,WSW,258,5.4,5.4,76,0.00,,---,0.00,VWS V14.01,2013-10-06 06:19:00,
2013-10-06 02:21:00,44.2,37.2,28.76,WSW,237,0.0,0.0,76,0.00,,---,0.00,VWS V14.01,2013-10-06 06:21:00,
2013-10-06 02:23:00,44.2,37.2,28.76,WSW,237,0.0,2.7,76,0.00,,---,0.00,VWS V14.01,2013-10-06 06:23:00,
2013-10-06 02:24:00,66.2,64.4,28.82,NW,316,0.0,0.0,94,0.00,,---,0.00,VWS V14.01,2013-10-06 06:24:00,
2013-10-06 02:25:00,44.4,37.3,28.76,WSW,252,0.0,4.5,76,0.00,,---,0.00,VWS V14.01,2013-10-06 06:25:00,
2013-10-06 02:29:00,44.4,37.3,28.76,SW,227,2.7,4.5,76,0.00,,---,0.00,VWS V14.01,2013-10-06 06:29:00,
2013-10-06 02:30:00,66.2,64.4,28.82,SE,142,0.0,0.0,94,0.00,,---,0.00,VWS V14.01,2013-10-06 06:30:00,
2013-10-06 02:35:00,66.2,64.4,28.82,SE,133,0.0,0.0,94,0.00,,---,0.00,VWS V14.01,2013-10-06 06:35:00,
2013-10-06 02:38:00,44.2,36.8,28.76,WNW,291,0.0,0.0,75,0.00,,---,0.00,VWS V14.01,2013-10-06 06:38:00,
2013-10-06 02:39:00,44.2,36.8,28.76,WNW,297,0.0,0.0,75,0.00,,---,0.00,VWS V14.01,2013-10-06 06:39:00,
2013-10-06 02:40:00,66.2,64.4,28.82,SE,139,3.6,4.0,94,0.00,,---,0.00,VWS V14.01,2013-10-06 06:40:00,
2013-10-06 02:45:00,66.2,64.4,28.82,SSE,159,0.0,4.0,94,0.00,,---,0.00,VWS V14.01,2013-10-06 06:45:00,
2013-10-06 02:50:00,66.2,64.4,28.82,SSE,168,0.0,3.6,94,0.00,,---,0.00,VWS V14.01,2013-10-06 06:50:00,
2013-10-06 02:56:00,66.2,64.4,28.82,WNW,296,2.7,2.7,94,0.04,,---,0.04,VWS V14.01,2013-10-06 06:56:00,
2013-10-06 03:01:00,44.1,37.0,28.76,SW,221,0.0,0.0,76,0.00,,---,0.00,VWS V14.01,2013-10-06 07:01:00,
2013-10-06 03:02:00,66.0,64.2,28.82,SSE,151,0.0,0.0,94,0.04,,---,0.04,VWS V14.01,2013-10-06 07:02:00,
2013-10-06 03:05:00,43.9,36.8,28.76,SSW,207,0.0,0.0,76,0.00,,---,0.00,VWS V14.01,2013-10-06 07:05:00,
2013-10-06 03:07:00,66.0,64.2,28.82,SSW,193,0.0,0.0,94,0.04,,---,0.04,VWS V14.01,2013-10-06 07:07:00,
2013-10-06 03:12:00,43.7,36.6,28.76,WSW,246,0.0,0.0,76,0.00,,---,0.00,VWS V14.01,2013-10-06 07:12:00,
2013-10-06 03:13:00,66.0,64.2,28.82,SSW,209,0.0,0.0,94,0.04,,---,0.04,VWS V14.01,2013-10-06 07:13:00,
2013-10-06 03:18:00,65.8,64.1,28.82,SW,217,2.7,3.6,94,0.04,,---,0.04,VWS V14.01,2013-10-06 07:18:00,
2013-10-06 03:23:00,65.8,64.1,28.82,NNW,333,0.0,0.0,94,0.08,,---,0.08,VWS V14.01,2013-10-06 07:23:00,
2013-10-06 03:28:00,65.7,63.9,28.82,SE,136,0.0,0.0,94,0.12,,---,0.12,VWS V14.01,2013-10-06 07:28:00,
2013-10-06 03:33:00,65.7,63.9,28.82,WSW,238,0.0,0.0,94,0.12,,---,0.12,VWS V14.01,2013-10-06 07:33:00,
2013-10-06 03:36:00,43.0,36.6,28.76,WSW,246,0.0,0.0,78,0.00,,---,0.00,VWS V14.01,2013-10-06 07:36:00,
2013-10-06 03:38:00,65.5,63.7,28.82,SE,134,0.0,4.5,94,0.20,,---,0.20,VWS V14.01,2013-10-06 07:38:00,
2013-10-06 03:41:00,42.8,36.4,28.76,WSW,246,0.0,0.0,78,0.00,,---,0.00,VWS V14.01,2013-10-06 07:41:00,
2013-10-06 03:43:00,65.5,63.7,28.82,SSE,148,0.0,0.0,94,0.24,,---,0.24,VWS V14.01,2013-10-06 07:43:00,
2013-10-06 03:48:00,65.5,63.7,28.79,SSE,149,4.9,4.9,94,0.24,,---,0.24,VWS V14.01,2013-10-06 07:48:00,
2013-10-06 03:53:00,65.3,63.5,28.79,ESE,112,0.0,4.9,94,0.28,,---,0.28,VWS V14.01,2013-10-06 07:53:00,
2013-10-06 03:58:00,65.3,63.5,28.79,SSW,205,0.0,4.0,94,0.24,,---,0.28,VWS V14.01,2013-10-06 07:58:00,
2013-10-06 04:03:00,65.3,63.8,28.79,SSE,155,0.0,4.0,95,0.24,,---,0.28,VWS V14.01,2013-10-06 08:03:00,
2013-10-06 04:08:00,65.3,63.8,28.79,SSE,165,0.0,0.0,95,0.28,,---,0.31,VWS V14.01,2013-10-06 08:08:00,
2013-10-06 04:13:00,65.3,63.8,28.79,East,90,0.0,5.4,95,0.28,,---,0.31,VWS V14.01,2013-10-06 08:13:00,
2013-10-06 04:18:00,65.1,63.7,28.79,SE,139,0.0,5.8,95,0.28,,---,0.31,VWS V14.01,2013-10-06 08:18:00,
2013-10-06 04:23:00,65.1,63.7,28.79,SSW,210,0.0,0.0,95,0.28,,---,0.35,VWS V14.01,2013-10-06 08:23:00,
2013-10-06 04:28:00,65.1,63.7,28.79,SSE,154,0.0,0.0,95,0.28,,---,0.35,VWS V14.01,2013-10-06 08:28:00,
2013-10-06 04:33:00,65.1,63.7,28.79,SSE,161,3.6,4.9,95,0.24,,---,0.35,VWS V14.01,2013-10-06 08:33:00,
2013-10-06 04:38:00,65.1,63.7,28.79,WSW,247,0.0,0.0,95,0.20,,---,0.39,VWS V14.01,2013-10-06 08:38:00,
2013-10-06 04:43:00,65.3,63.8,28.79,WSW,241,3.6,3.6,95,0.16,,---,0.39,VWS V14.01,2013-10-06 08:43:00,
2013-10-06 04:48:00,65.3,63.8,28.79,South,188,0.0,3.1,95,0.16,,---,0.39,VWS V14.01,2013-10-06 08:48:00,
2013-10-06 04:53:00,65.3,64.1,28.79,SE,130,6.3,7.8,96,0.16,,---,0.43,VWS V14.01,2013-10-06 08:53:00,
2013-10-06 04:58:00,65.3,64.1,28.79,ESE,118,4.5,7.8,96,0.16,,---,0.43,VWS V14.01,2013-10-06 08:58:00,
2013-10-06 05:03:00,65.3,64.1,28.79,SSE,153,5.8,7.4,96,0.16,,---,0.43,VWS V14.01,2013-10-06 09:03:00,
2013-10-06 05:08:00,65.3,63.8,28.79,SE,131,4.9,7.8,95,0.16,,---,0.47,VWS V14.01,2013-10-06 09:08:00,
2013-10-06 05:13:00,65.5,64.0,28.79,WSW,253,2.7,8.3,95,0.16,,---,0.47,VWS V14.01,2013-10-06 09:13:00,
2013-10-06 05:18:00,65.3,64.1,28.76,SSW,208,3.6,6.7,96,0.20,,---,0.51,VWS V14.01,2013-10-06 09:18:00,
2013-10-06 05:24:00,65.3,64.1,28.76,SSE,152,6.7,9.2,96,0.16,,---,0.51,VWS V14.01,2013-10-06 09:24:00,
2013-10-06 05:29:00,65.3,64.1,28.76,SE,129,4.5,4.5,96,0.20,,---,0.55,VWS V14.01,2013-10-06 09:29:00,
2013-10-06 05:34:00,65.5,64.3,28.76,SE,145,2.7,10.5,96,0.20,,---,0.55,VWS V14.01,2013-10-06 09:34:00,
2013-10-06 05:39:00,65.3,64.1,28.76,SE,133,2.7,3.1,96,0.20,,---,0.59,VWS V14.01,2013-10-06 09:39:00,
2013-10-06 05:44:00,65.5,64.3,28.76,South,171,3.1,6.9,96,0.20,,---,0.59,VWS V14.01,2013-10-06 09:44:00,
2013-10-06 05:49:00,65.5,64.3,28.79,SE,134,0.0,5.8,96,0.20,,---,0.59,VWS V14.01,2013-10-06 09:49:00,
2013-10-06 05:54:00,65.5,64.3,28.79,SE,135,0.0,3.6,96,0.20,,---,0.63,VWS V14.01,2013-10-06 09:54:00,
2013-10-06 05:59:00,65.5,64.3,28.79,WNW,297,0.0,2.7,96,0.20,,---,0.63,VWS V14.01,2013-10-06 09:59:00,
2013-10-06 06:04:00,65.5,64.3,28.79,SSE,157,5.8,5.8,96,0.24,,---,0.67,VWS V14.01,2013-10-06 10:04:00,
2013-10-06 06:09:00,65.3,64.1,28.79,East,82,0.0,0.0,96,0.20,,---,0.67,VWS V14.01,2013-10-06 10:09:00,
2013-10-06 06:14:00,65.3,64.1,28.79,SSE,155,0.0,0.0,96,0.20,,---,0.67,VWS V14.01,2013-10-06 10:14:00,
2013-10-06 06:19:00,65.3,64.1,28.79,SE,137,4.9,5.4,96,0.16,,---,0.67,VWS V14.01,2013-10-06 10:19:00,
2013-10-06 06:24:00,65.3,64.4,28.79,SE,135,4.9,4.9,97,0.16,,---,0.67,VWS V14.01,2013-10-06 10:24:00,
2013-10-06 06:31:00,65.3,64.4,28.79,SSW,213,0.0,3.6,97,0.16,,---,0.71,VWS V14.01,2013-10-06 10:31:00,
2013-10-06 06:36:00,65.1,64.2,28.76,SSE,150,4.0,4.0,97,0.16,,---,0.71,VWS V14.01,2013-10-06 10:36:00,
2013-10-06 06:41:00,65.1,64.2,28.76,South,178,0.0,6.3,97,0.12,,---,0.71,VWS V14.01,2013-10-06 10:41:00,
2013-10-06 06:46:00,65.1,64.2,28.76,South,169,0.0,4.0,97,0.12,,---,0.71,VWS V14.01,2013-10-06 10:46:00,
2013-10-06 06:52:00,65.1,64.2,28.76,SE,142,0.0,5.4,97,0.08,,---,0.71,VWS V14.01,2013-10-06 10:52:00,
2013-10-06 06:57:00,65.1,64.2,28.76,South,178,0.0,4.0,97,0.08,,---,0.71,VWS V14.01,2013-10-06 10:57:00,
2013-10-06 07:02:00,65.1,64.2,28.76,SSE,148,0.0,3.6,97,0.04,,---,0.71,VWS V14.01,2013-10-06 11:02:00,
2013-10-06 07:07:00,65.1,64.2,28.76,SSE,149,4.5,6.9,97,0.04,,---,0.71,VWS V14.01,2013-10-06 11:07:00,
2013-10-06 07:12:00,65.1,64.2,28.76,SSE,151,2.7,3.1,97,0.04,,---,0.71,VWS V14.01,2013-10-06 11:12:00,
2013-10-06 07:17:00,65.1,64.2,28.76,South,171,4.9,4.9,97,0.04,,---,0.71,VWS V14.01,2013-10-06 11:17:00,
2013-10-06 07:22:00,65.1,64.2,28.76,ESE,103,3.6,4.0,97,0.04,,---,0.71,VWS V14.01,2013-10-06 11:22:00,
2013-10-06 07:28:00,65.1,64.2,28.76,WNW,287,0.0,4.9,97,0.00,,---,0.71,VWS V14.01,2013-10-06 11:28:00,
2013-10-06 07:34:00,65.1,64.2,28.76,SSE,165,0.0,6.9,97,0.04,,---,0.75,VWS V14.01,2013-10-06 11:34:00,
2013-10-06 07:39:00,65.1,64.2,28.76,SE,140,5.8,5.8,97,0.04,,---,0.75,VWS V14.01,2013-10-06 11:39:00,
2013-10-06 07:44:00,65.1,64.2,28.76,ESE,113,3.6,5.8,97,0.04,,---,0.75,VWS V14.01,2013-10-06 11:44:00,
2013-10-06 07:49:00,65.1,64.2,28.76,NNE,18,0.0,5.8,97,0.04,,---,0.75,VWS V14.01,2013-10-06 11:49:00,
2013-10-06 07:54:00,65.1,64.2,28.76,SE,139,4.0,4.9,97,0.04,,---,0.75,VWS V14.01,2013-10-06 11:54:00,
2013-10-06 07:59:00,65.1,64.2,28.76,SE,126,3.6,5.4,97,0.04,,---,0.75,VWS V14.01,2013-10-06 11:59:00,
2013-10-06 08:04:00,64.9,64.1,28.73,ESE,118,5.8,5.8,97,0.04,,---,0.75,VWS V14.01,2013-10-06 12:04:00,
2013-10-06 08:09:00,64.9,64.1,28.73,SE,131,6.3,6.3,97,0.04,,---,0.75,VWS V14.01,2013-10-06 12:09:00,
2013-10-06 08:14:00,64.9,64.1,28.73,NE,38,3.1,5.4,97,0.08,,---,0.79,VWS V14.01,2013-10-06 12:14:00,
2013-10-06 08:19:00,64.9,64.1,28.73,SE,130,2.7,4.0,97,0.08,,---,0.79,VWS V14.01,2013-10-06 12:19:00,
2013-10-06 08:24:00,64.9,64.1,28.73,SSE,163,4.9,10.5,97,0.08,,---,0.79,VWS V14.01,2013-10-06 12:24:00,
2013-10-06 08:29:00,64.9,64.1,28.73,SSE,149,6.9,8.7,97,0.08,,---,0.79,VWS V14.01,2013-10-06 12:29:00,
2013-10-06 08:34:00,64.9,64.1,28.73,SSE,165,4.0,6.7,97,0.08,,---,0.79,VWS V14.01,2013-10-06 12:34:00,
2013-10-06 08:39:00,64.9,64.1,28.73,SE,137,4.9,5.4,97,0.04,,---,0.79,VWS V14.01,2013-10-06 12:39:00,
2013-10-06 08:44:00,64.9,64.1,28.73,West,276,3.6,3.6,97,0.04,,---,0.79,VWS V14.01,2013-10-06 12:44:00,
2013-10-06 08:49:00,64.9,64.1,28.73,SE,126,0.0,4.0,97,0.04,,---,0.79,VWS V14.01,2013-10-06 12:49:00,
2013-10-06 08:54:00,64.9,64.1,28.73,SE,135,3.6,7.8,97,0.04,,---,0.79,VWS V14.01,2013-10-06 12:54:00,
2013-10-06 08:59:00,64.9,64.1,28.73,SE,134,4.0,6.3,97,0.04,,---,0.79,VWS V14.01,2013-10-06 12:59:00,
2013-10-06 09:04:00,64.9,64.1,28.73,ESE,104,3.6,8.7,97,0.04,,---,0.79,VWS V14.01,2013-10-06 13:04:00,
2013-10-06 09:09:00,64.9,64.1,28.73,SE,145,3.6,4.0,97,0.04,,---,0.79,VWS V14.01,2013-10-06 13:09:00,
2013-10-06 09:14:00,64.9,64.1,28.73,SSE,156,4.9,6.3,97,0.04,,---,0.79,VWS V14.01,2013-10-06 13:14:00,
2013-10-06 09:19:00,64.9,64.1,28.73,SW,232,2.7,5.8,97,0.00,,---,0.79,VWS V14.01,2013-10-06 13:19:00,
2013-10-06 09:24:00,64.9,64.1,28.73,ESE,118,3.6,3.6,97,0.00,,---,0.79,VWS V14.01,2013-10-06 13:24:00,
2013-10-06 09:29:00,64.8,63.9,28.73,North,1,0.0,5.8,97,0.00,,---,0.79,VWS V14.01,2013-10-06 13:29:00,
2013-10-06 09:34:00,64.9,64.1,28.73,SSW,199,4.5,5.4,97,0.00,,---,0.79,VWS V14.01,2013-10-06 13:34:00,
2013-10-06 09:39:00,64.8,63.9,28.73,ESE,120,3.6,4.5,97,0.00,,---,0.79,VWS V14.01,2013-10-06 13:39:00,
2013-10-06 09:44:00,64.8,63.9,28.73,South,172,3.6,6.9,97,0.00,,---,0.79,VWS V14.01,2013-10-06 13:44:00,
2013-10-06 09:49:00,64.8,63.9,28.73,SW,235,4.5,5.8,97,0.04,,---,0.83,VWS V14.01,2013-10-06 13:49:00,
2013-10-06 09:54:00,64.8,63.9,28.73,SSE,159,0.0,3.1,97,0.04,,---,0.83,VWS V14.01,2013-10-06 13:54:00,
2013-10-06 09:59:00,64.8,63.9,28.73,ENE,60,0.0,4.9,97,0.04,,---,0.83,VWS V14.01,2013-10-06 13:59:00,
2013-10-06 10:04:00,64.8,63.9,28.73,SE,140,7.4,7.8,97,0.04,,---,0.83,VWS V14.01,2013-10-06 14:04:00,
2013-10-06 10:09:00,64.8,63.9,28.73,SSE,166,3.1,3.6,97,0.04,,---,0.83,VWS V14.01,2013-10-06 14:09:00,
2013-10-06 10:14:00,64.9,64.1,28.73,SSE,153,3.6,4.0,97,0.04,,---,0.83,VWS V14.01,2013-10-06 14:14:00,
2013-10-06 10:19:00,64.9,64.1,28.73,SE,140,0.0,3.6,97,0.04,,---,0.83,VWS V14.01,2013-10-06 14:19:00,
2013-10-06 10:24:00,64.9,64.1,28.73,East,94,0.0,0.0,97,0.04,,---,0.83,VWS V14.01,2013-10-06 14:24:00,
2013-10-06 10:29:00,64.8,63.9,28.73,SE,135,7.4,10.5,97,0.04,,---,0.83,VWS V14.01,2013-10-06 14:29:00,
2013-10-06 10:34:00,64.8,63.9,28.73,East,87,3.1,4.5,97,0.04,,---,0.83,VWS V14.01,2013-10-06 14:34:00,
2013-10-06 10:39:00,64.8,63.9,28.73,SSE,150,3.6,5.4,97,0.04,,---,0.83,VWS V14.01,2013-10-06 14:39:00,
2013-10-06 10:44:00,64.9,64.1,28.73,WNW,294,0.0,4.9,97,0.04,,---,0.83,VWS V14.01,2013-10-06 14:44:00,
2013-10-06 10:49:00,65.1,64.2,28.73,ESE,118,4.0,5.8,97,0.00,,---,0.83,VWS V14.01,2013-10-06 14:49:00,
2013-10-06 10:54:00,65.3,64.4,28.73,SE,125,0.0,6.9,97,0.00,,---,0.83,VWS V14.01,2013-10-06 14:54:00,
2013-10-06 10:59:00,65.5,64.6,28.73,SE,127,6.9,6.9,97,0.00,,---,0.83,VWS V14.01,2013-10-06 14:59:00,
2013-10-06 11:05:00,65.5,64.6,28.73,WSW,242,3.1,3.1,97,0.00,,---,0.83,VWS V14.01,2013-10-06 15:05:00,
2013-10-06 11:10:00,65.7,64.8,28.73,ESE,122,5.4,5.4,97,0.00,,---,0.83,VWS V14.01,2013-10-06 15:10:00,
2013-10-06 11:15:00,65.5,64.6,28.73,WNW,297,2.7,4.9,97,0.00,,---,0.83,VWS V14.01,2013-10-06 15:15:00,
2013-10-06 11:20:00,65.5,64.6,28.73,SE,129,2.7,4.0,97,0.00,,---,0.83,VWS V14.01,2013-10-06 15:20:00,
2013-10-06 11:25:00,65.7,64.8,28.73,South,177,0.0,4.0,97,0.00,,---,0.83,VWS V14.01,2013-10-06 15:25:00,
2013-10-06 11:30:00,65.7,64.8,28.73,SSE,147,3.6,5.8,97,0.00,,---,0.83,VWS V14.01,2013-10-06 15:30:00,
2013-10-06 11:35:00,65.8,65.0,28.70,South,190,0.0,4.0,97,0.00,,---,0.83,VWS V14.01,2013-10-06 15:35:00,
2013-10-06 11:40:00,65.8,65.0,28.70,SSE,154,2.7,6.7,97,0.00,,---,0.83,VWS V14.01,2013-10-06 15:40:00,
2013-10-06 11:45:00,66.0,65.2,28.70,SE,144,4.5,6.7,97,0.00,,---,0.83,VWS V14.01,2013-10-06 15:45:00,
2013-10-06 11:50:00,66.2,65.3,28.70,SE,145,0.0,5.8,97,0.00,,---,0.83,VWS V14.01,2013-10-06 15:50:00,
2013-10-06 11:55:00,66.4,65.5,28.70,NE,43,0.0,3.1,97,0.00,,---,0.83,VWS V14.01,2013-10-06 15:55:00,
2013-10-06 12:00:00,66.7,65.9,28.70,SE,134,2.7,5.8,97,0.00,,---,0.83,VWS V14.01,2013-10-06 16:00:00,
2013-10-06 12:05:00,67.1,66.2,28.70,SSE,155,4.5,4.9,97,0.00,,---,0.83,VWS V14.01,2013-10-06 16:05:00,
2013-10-06 12:10:00,67.3,66.1,28.70,SSE,161,6.7,6.7,96,0.00,,---,0.83,VWS V14.01,2013-10-06 16:10:00,
2013-10-06 12:15:00,67.1,65.9,28.70,North,0,3.6,5.4,96,0.00,,---,0.83,VWS V14.01,2013-10-06 16:15:00,
2013-10-06 12:20:00,64.2,63.3,28.70,NNW,328,6.3,8.3,97,0.04,,---,0.87,VWS V14.01,2013-10-06 16:20:00,
2013-10-06 12:25:00,61.9,61.0,28.70,West,275,3.1,6.9,97,0.04,,---,0.87,VWS V14.01,2013-10-06 16:25:00,
2013-10-06 12:30:00,61.0,60.1,28.70,NNW,336,2.7,8.3,97,0.04,,---,0.87,VWS V14.01,2013-10-06 16:30:00,
2013-10-06 12:35:00,60.6,59.8,28.73,NW,315,6.7,6.9,97,0.04,,---,0.87,VWS V14.01,2013-10-06 16:35:00,
2013-10-06 12:40:00,60.1,59.2,28.73,NW,319,4.5,5.4,97,0.04,,---,0.87,VWS V14.01,2013-10-06 16:40:00,
2013-10-06 12:45:00,59.7,58.9,28.73,North,9,6.9,8.7,97,0.04,,---,0.87,VWS V14.01,2013-10-06 16:45:00,
2013-10-06 12:50:00,59.7,58.9,28.73,WNW,292,3.6,7.8,97,0.04,,---,0.87,VWS V14.01,2013-10-06 16:50:00,
2013-10-06 12:55:00,59.7,58.9,28.73,North,351,5.8,7.4,97,0.04,,---,0.87,VWS V14.01,2013-10-06 16:55:00,
2013-10-06 13:00:00,59.7,58.9,28.73,West,281,4.9,7.4,97,0.04,,---,0.87,VWS V14.01,2013-10-06 17:00:00,
2013-10-06 13:05:00,59.7,58.9,28.70,WNW,294,4.5,5.4,97,0.04,,---,0.87,VWS V14.01,2013-10-06 17:05:00,
2013-10-06 13:10:00,59.7,58.9,28.70,West,281,3.6,5.4,97,0.04,,---,0.87,VWS V14.01,2013-10-06 17:10:00,
2013-10-06 13:15:00,59.5,58.7,28.70,NW,316,4.5,4.5,97,0.04,,---,0.87,VWS V14.01,2013-10-06 17:15:00,
2013-10-06 13:20:00,60.3,59.4,28.70,North,351,0.0,4.0,97,0.00,,---,0.87,VWS V14.01,2013-10-06 17:20:00,
2013-10-06 13:25:00,60.3,59.4,28.70,NW,320,2.7,5.4,97,0.00,,---,0.87,VWS V14.01,2013-10-06 17:25:00,
2013-10-06 13:30:00,59.7,58.9,28.70,NNW,339,4.5,6.3,97,0.00,,---,0.87,VWS V14.01,2013-10-06 17:30:00,
2013-10-06 13:35:00,59.4,58.5,28.70,WNW,298,4.0,6.3,97,0.00,,---,0.87,VWS V14.01,2013-10-06 17:35:00,
2013-10-06 13:40:00,59.5,58.7,28.70,West,261,4.0,4.9,97,0.00,,---,0.87,VWS V14.01,2013-10-06 17:40:00,
2013-10-06 13:45:00,59.4,58.5,28.70,WSW,237,6.3,6.7,97,0.00,,---,0.87,VWS V14.01,2013-10-06 17:45:00,
2013-10-06 13:50:00,59.4,58.5,28.70,WSW,247,8.3,11.6,97,0.04,,---,0.91,VWS V14.01,2013-10-06 17:50:00,
2013-10-06 13:55:00,59.0,57.9,28.70,NW,308,8.3,8.3,96,0.04,,---,0.91,VWS V14.01,2013-10-06 17:55:00,
2013-10-06 14:00:00,58.8,57.7,28.70,WNW,287,3.1,6.9,96,0.04,,---,0.91,VWS V14.01,2013-10-06 18:00:00,
2013-10-06 14:05:00,58.8,57.7,28.70,NW,315,3.1,5.8,96,0.04,,---,0.91,VWS V14.01,2013-10-06 18:05:00,
2013-10-06 14:10:00,58.8,57.7,28.70,West,276,9.2,9.2,96,0.08,,---,0.94,VWS V14.01,2013-10-06 18:10:00,
2013-10-06 14:15:00,58.8,57.7,28.70,SW,236,8.3,12.1,96,0.16,,---,1.02,VWS V14.01,2013-10-06 18:15:00,
2013-10-06 14:20:00,58.3,57.2,28.70,SW,236,5.8,9.6,96,0.16,,---,1.02,VWS V14.01,2013-10-06 18:20:00,
2013-10-06 14:25:00,57.6,56.7,28.70,WSW,254,6.3,10.5,97,0.20,,---,1.06,VWS V14.01,2013-10-06 18:25:00,
2013-10-06 14:30:00,58.1,57.0,28.70,NW,305,5.4,6.3,96,0.20,,---,1.06,VWS V14.01,2013-10-06 18:30:00,
2013-10-06 14:35:00,58.1,57.3,28.70,SW,230,3.6,5.4,97,0.20,,---,1.06,VWS V14.01,2013-10-06 18:35:00,
2013-10-06 14:40:00,58.3,57.2,28.70,NW,309,6.9,6.9,96,0.20,,---,1.06,VWS V14.01,2013-10-06 18:40:00,
2013-10-06 14:45:00,57.7,56.9,28.70,WNW,286,7.8,7.8,97,0.20,,---,1.06,VWS V14.01,2013-10-06 18:45:00,
2013-10-06 14:50:00,57.6,56.7,28.70,West,263,6.7,8.3,97,0.20,,---,1.10,VWS V14.01,2013-10-06 18:50:00,
2013-10-06 14:55:00,57.7,56.9,28.70,West,264,3.6,6.9,97,0.20,,---,1.10,VWS V14.01,2013-10-06 18:55:00,
2013-10-06 15:01:00,57.9,57.1,28.70,WSW,251,2.7,7.4,97,0.20,,---,1.10,VWS V14.01,2013-10-06 19:01:00,
2013-10-06 15:03:00,57.7,34.8,28.94,West,280,6.9,10.5,42,0.00,,---,0.00,VWS V14.01,2013-10-06 19:03:00,
2013-10-06 15:05:00,57.9,35.6,28.94,WNW,299,9.2,10.5,43,0.00,,---,0.00,VWS V14.01,2013-10-06 19:05:00,
2013-10-06 15:06:00,57.9,57.1,28.70,WNW,293,4.0,5.4,97,0.20,,---,1.10,VWS V14.01,2013-10-06 19:06:00,
2013-10-06 15:09:00,57.9,35.0,28.94,West,272,0.0,12.1,42,0.00,,---,0.00,VWS V14.01,2013-10-06 19:09:00,
2013-10-06 15:11:00,57.9,57.1,28.70,WNW,283,4.0,7.4,97,0.16,,---,1.10,VWS V14.01,2013-10-06 19:11:00,
2013-10-06 15:16:00,57.9,57.1,28.70,West,269,5.8,5.8,97,0.08,,---,1.10,VWS V14.01,2013-10-06 19:16:00,
2013-10-06 15:19:00,57.4,36.2,28.94,West,260,7.8,10.5,45,0.00,,---,0.00,VWS V14.01,2013-10-06 19:19:00,
2013-10-06 15:21:00,57.7,56.9,28.70,SSW,194,3.1,4.9,97,0.08,,---,1.10,VWS V14.01,2013-10-06 19:21:00,
2013-10-06 15:23:00,57.2,36.6,28.94,NW,324,13.0,13.0,46,0.00,,---,0.00,VWS V14.01,2013-10-06 19:23:00,
2013-10-06 15:26:00,57.9,57.1,28.70,West,263,4.5,7.4,97,0.04,,---,1.10,VWS V14.01,2013-10-06 19:26:00,
2013-10-06 15:31:00,58.8,58.0,28.70,WSW,254,4.9,6.7,97,0.04,,---,1.10,VWS V14.01,2013-10-06 19:31:00,
2013-10-06 15:33:00,56.8,36.3,28.94,WNW,301,10.5,10.5,46,0.00,,---,0.00,VWS V14.01,2013-10-06 19:33:00,
2013-10-06 15:36:00,59.0,58.2,28.70,NW,325,0.0,5.8,97,0.04,,---,1.10,VWS V14.01,2013-10-06 19:36:00,
2013-10-06 15:41:00,58.6,57.8,28.70,West,268,4.5,7.4,97,0.04,,---,1.10,VWS V14.01,2013-10-06 19:41:00,
2013-10-06 15:42:00,56.3,35.8,28.94,West,279,6.3,10.1,46,0.00,,---,0.00,VWS V14.01,2013-10-06 19:42:00,
2013-10-06 15:44:00,56.3,35.8,28.94,West,278,5.8,13.0,46,0.00,,---,0.00,VWS V14.01,2013-10-06 19:44:00,
2013-10-06 15:46:00,59.0,58.2,28.70,WNW,292,0.0,4.0,97,0.04,,---,1.10,VWS V14.01,2013-10-06 19:46:00,
2013-10-06 15:51:00,59.4,58.5,28.70,WSW,257,0.0,5.8,97,0.00,,---,1.10,VWS V14.01,2013-10-06 19:51:00,
2013-10-06 15:54:00,57.4,36.8,28.94,NW,312,5.8,7.8,46,0.00,,---,0.00,VWS V14.01,2013-10-06 19:54:00,
2013-10-06 15:56:00,59.4,58.5,28.70,WNW,291,3.6,3.6,97,0.00,,---,1.10,VWS V14.01,2013-10-06 19:56:00,
2013-10-06 15:57:00,58.6,37.4,28.94,WNW,287,4.0,6.9,45,0.00,,---,0.00,VWS V14.01,2013-10-06 19:57:00,
2013-10-06 15:59:00,59.4,36.3,28.94,WSW,251,5.8,7.4,42,0.00,,---,0.00,VWS V14.01,2013-10-06 19:59:00,
2013-10-06 16:01:00,58.5,57.3,28.70,West,281,3.1,6.9,96,0.00,,---,1.10,VWS V14.01,2013-10-06 20:01:00,
2013-10-06 16:06:00,58.3,57.2,28.70,West,277,4.5,5.8,96,0.00,,---,1.10,VWS V14.01,2013-10-06 20:06:00,
2013-10-06 16:11:00,57.9,56.8,28.70,West,274,0.0,7.8,96,0.00,,---,1.10,VWS V14.01,2013-10-06 20:11:00,
2013-10-06 16:12:00,58.1,34.5,28.94,SW,233,6.9,8.3,41,0.00,,---,0.00,VWS V14.01,2013-10-06 20:12:00,
2013-10-06 16:16:00,58.1,57.0,28.70,WSW,256,0.0,3.1,96,0.00,,---,1.10,VWS V14.01,2013-10-06 20:16:00,
2013-10-06 16:21:00,58.1,56.7,28.67,WNW,288,4.9,6.3,95,0.00,,---,1.10,VWS V14.01,2013-10-06 20:21:00,
2013-10-06 16:23:00,59.7,34.7,28.94,WNW,293,6.7,6.9,39,0.00,,---,0.00,VWS V14.01,2013-10-06 20:23:00,
2013-10-06 16:25:00,59.7,33.4,28.94,West,269,3.6,4.5,37,0.00,,---,0.00,VWS V14.01,2013-10-06 20:25:00,
2013-10-06 16:26:00,58.3,56.9,28.67,West,280,5.8,6.7,95,0.00,,---,1.10,VWS V14.01,2013-10-06 20:26:00,
2013-10-06 16:28:00,59.9,34.2,28.94,NW,315,4.9,6.9,38,0.00,,---,0.00,VWS V14.01,2013-10-06 20:28:00,
2013-10-06 16:31:00,58.5,57.0,28.67,NW,318,2.7,5.4,95,0.00,,---,1.10,VWS V14.01,2013-10-06 20:31:00,
2013-10-06 16:36:00,58.6,57.2,28.70,WNW,300,3.1,6.7,95,0.00,,---,1.10,VWS V14.01,2013-10-06 20:36:00,
2013-10-06 16:37:00,59.7,34.7,28.94,NW,309,3.6,5.8,39,0.00,,---,0.00,VWS V14.01,2013-10-06 20:37:00,
2013-10-06 16:39:00,60.1,33.8,28.94,West,263,6.9,8.3,37,0.00,,---,0.00,VWS V14.01,2013-10-06 20:39:00,
2013-10-06 16:41:00,59.2,57.5,28.70,North,0,0.0,2.7,94,0.00,,---,1.10,VWS V14.01,2013-10-06 20:41:00,
2013-10-06 16:42:00,60.3,33.2,28.94,WSW,258,2.7,8.3,36,0.00,,---,0.00,VWS V14.01,2013-10-06 20:42:00,
2013-10-06 16:46:00,58.6,56.9,28.70,West,271,6.7,6.7,94,0.00,,---,1.10,VWS V14.01,2013-10-06 20:46:00,
2013-10-06 16:48:00,60.6,32.8,28.94,NNW,345,4.0,4.9,35,0.00,,---,0.00,VWS V14.01,2013-10-06 20:48:00,
2013-10-06 16:49:00,60.6,32.8,28.94,NNW,333,4.0,4.0,35,0.00,,---,0.00,VWS V14.01,2013-10-06 20:49:00,
2013-10-06 16:51:00,59.0,57.0,28.67,WSW,245,4.9,4.9,93,0.00,,---,1.10,VWS V14.01,2013-10-06 20:51:00,
2013-10-06 16:53:00,59.9,32.9,28.94,NW,305,3.6,6.7,36,0.00,,---,0.00,VWS V14.01,2013-10-06 20:53:00,
2013-10-06 16:54:00,59.7,32.7,28.94,North,351,3.1,4.5,36,0.00,,---,0.00,VWS V14.01,2013-10-06 20:54:00,
2013-10-06 16:55:00,59.5,33.3,28.94,NNW,342,0.0,4.5,37,0.00,,---,0.00,VWS V14.01,2013-10-06 20:55:00,
2013-10-06 16:56:00,59.0,56.7,28.67,WNW,282,3.6,4.5,92,0.00,,---,1.10,VWS V14.01,2013-10-06 20:56:00,
2013-10-06 16:58:00,59.9,34.2,28.97,NNW,338,3.1,4.5,38,0.00,,---,0.00,VWS V14.01,2013-10-06 20:58:00,
2013-10-06 17:00:00,60.3,33.2,28.97,WNW,282,6.7,8.7,36,0.00,,---,0.00,VWS V14.01,2013-10-06 21:00:00,
2013-10-06 17:01:00,59.0,56.4,28.67,WSW,242,6.9,6.9,91,0.00,,---,1.10,VWS V14.01,2013-10-06 21:01:00,
2013-10-06 17:02:00,60.6,32.8,28.97,NNW,329,5.4,5.4,35,0.00,,---,0.00,VWS V14.01,2013-10-06 21:02:00,
2013-10-06 17:03:00,61.0,33.2,28.97,NW,313,4.5,5.8,35,0.00,,---,0.00,VWS V14.01,2013-10-06 21:03:00,
2013-10-06 17:04:00,61.3,33.5,28.97,NNW,346,0.0,4.9,35,0.00,,---,0.00,VWS V14.01,2013-10-06 21:04:00,
2013-10-06 17:05:00,61.5,32.9,28.97,NNW,345,6.9,9.2,34,0.00,,---,0.00,VWS V14.01,2013-10-06 21:05:00,
2013-10-06 17:06:00,58.8,55.9,28.67,West,268,3.6,4.5,90,0.00,,---,1.10,VWS V14.01,2013-10-06 21:06:00,
2013-10-06 17:09:00,61.3,33.5,28.97,NW,320,6.3,6.3,35,0.00,,---,0.00,VWS V14.01,2013-10-06 21:09:00,
2013-10-06 17:10:00,61.3,32.8,28.97,WNW,290,5.8,10.5,34,0.00,,---,0.00,VWS V14.01,2013-10-06 21:10:00,
2013-10-06 17:11:00,58.8,55.9,28.67,WSW,239,0.0,3.6,90,0.00,,---,1.10,VWS V14.01,2013-10-06 21:11:00,
2013-10-06 17:12:00,61.7,33.1,28.94,WNW,301,5.4,5.8,34,0.00,,---,0.00,VWS V14.01,2013-10-06 21:12:00,
2013-10-06 17:13:00,61.7,33.1,28.94,NNW,340,3.6,6.9,34,0.00,,---,0.00,VWS V14.01,2013-10-06 21:13:00,
2013-10-06 17:16:00,58.6,55.4,28.67,SW,231,0.0,3.6,89,0.00,,---,1.10,VWS V14.01,2013-10-06 21:16:00,
2013-10-06 17:17:00,61.9,33.2,28.94,NW,311,6.9,6.9,34,0.00,,---,0.00,VWS V14.01,2013-10-06 21:17:00,
2013-10-06 17:19:00,61.9,32.5,28.94,WSW,237,2.7,6.7,33,0.00,,---,0.00,VWS V14.01,2013-10-06 21:19:00,
2013-10-06 17:21:00,58.5,54.9,28.67,WSW,246,3.1,4.5,88,0.00,,---,1.10,VWS V14.01,2013-10-06 21:21:00,
2013-10-06 17:22:00,61.7,32.3,28.94,NNW,339,4.5,7.4,33,0.00,,---,0.00,VWS V14.01,2013-10-06 21:22:00,
2013-10-06 17:23:00,61.7,32.3,28.94,NNW,340,0.0,7.4,33,0.00,,---,0.00,VWS V14.01,2013-10-06 21:23:00,
2013-10-06 17:25:00,61.5,32.2,28.94,NW,312,4.9,8.3,33,0.00,,---,0.00,VWS V14.01,2013-10-06 21:25:00,
2013-10-06 17:26:00,58.5,54.9,28.67,SW,227,4.0,5.8,88,0.00,,---,1.10,VWS V14.01,2013-10-06 21:26:00,
2013-10-06 17:28:00,61.7,33.1,28.97,WNW,293,6.3,8.3,34,0.00,,---,0.00,VWS V14.01,2013-10-06 21:28:00,
2013-10-06 17:30:00,61.7,32.3,28.97,NW,307,6.9,8.7,33,0.00,,---,0.00,VWS V14.01,2013-10-06 21:30:00,
2013-10-06 17:31:00,58.6,55.1,28.67,NW,319,0.0,4.0,88,0.00,,---,1.10,VWS V14.01,2013-10-06 21:31:00,
2013-10-06 17:32:00,61.7,32.3,28.97,WNW,289,2.7,9.2,33,0.00,,---,0.00,VWS V14.01,2013-10-06 21:32:00,
2013-10-06 17:34:00,61.7,31.6,28.97,NW,320,5.4,8.3,32,0.00,,---,0.00,VWS V14.01,2013-10-06 21:34:00,
2013-10-06 17:35:00,61.7,32.3,28.97,WNW,292,4.0,6.9,33,0.00,,---,0.00,VWS V14.01,2013-10-06 21:35:00,
2013-10-06 17:36:00,58.6,55.1,28.70,SW,225,0.0,0.0,88,0.00,,---,1.10,VWS V14.01,2013-10-06 21:36:00,
2013-10-06 17:37:00,61.7,32.3,28.97,WNW,283,4.5,6.3,33,0.00,,---,0.00,VWS V14.01,2013-10-06 21:37:00,
2013-10-06 17:39:00,61.5,32.9,28.97,West,267,3.1,9.6,34,0.00,,---,0.00,VWS V14.01,2013-10-06 21:39:00,
2013-10-06 17:41:00,58.8,55.6,28.70,WSW,250,0.0,0.0,89,0.00,,---,1.10,VWS V14.01,2013-10-06 21:41:00,
2013-10-06 17:42:00,61.7,33.1,28.97,NW,306,0.0,0.0,34,0.00,,---,0.00,VWS V14.01,2013-10-06 21:42:00,
2013-10-06 17:43:00,61.9,33.2,28.97,West,259,4.0,6.9,34,0.00,,---,0.00,VWS V14.01,2013-10-06 21:43:00,
2013-10-06 17:44:00,62.1,33.4,28.97,West,262,4.5,5.4,34,0.00,,---,0.00,VWS V14.01,2013-10-06 21:44:00,
2013-10-06 17:45:00,62.2,33.5,28.97,WNW,290,0.0,4.9,34,0.00,,---,0.00,VWS V14.01,2013-10-06 21:45:00,
2013-10-06 17:46:00,59.4,56.1,28.70,SW,229,0.0,0.0,89,0.00,,---,1.10,VWS V14.01,2013-10-06 21:46:00,
2013-10-06 17:47:00,62.2,33.5,28.97,NW,305,4.9,6.3,34,0.00,,---,0.00,VWS V14.01,2013-10-06 21:47:00,
2013-10-06 17:48:00,62.1,32.6,28.97,North,351,8.3,9.2,33,0.00,,---,0.00,VWS V14.01,2013-10-06 21:48:00,
2013-10-06 17:49:00,61.9,30.9,28.97,West,280,5.8,10.1,31,0.00,,---,0.00,VWS V14.01,2013-10-06 21:49:00,
2013-10-06 17:51:00,59.4,55.8,28.70,SW,222,0.0,4.0,88,0.00,,---,1.10,VWS V14.01,2013-10-06 21:51:00,
2013-10-06 17:52:00,61.7,30.0,28.97,NNW,344,4.5,11.6,30,0.00,,---,0.00,VWS V14.01,2013-10-06 21:52:00,
2013-10-06 17:53:00,61.7,29.1,28.97,NW,305,5.8,6.9,29,0.00,,---,0.00,VWS V14.01,2013-10-06 21:53:00,
2013-10-06 17:54:00,61.5,29.0,28.97,NW,313,4.5,6.9,29,0.00,,---,0.00,VWS V14.01,2013-10-06 21:54:00,
2013-10-06 17:55:00,61.5,29.0,28.97,NW,320,6.9,8.3,29,0.00,,---,0.00,VWS V14.01,2013-10-06 21:55:00,
2013-10-06 17:56:00,59.4,55.2,28.70,West,274,0.0,5.4,86,0.00,,---,1.10,VWS V14.01,2013-10-06 21:56:00,
2013-10-06 17:58:00,61.3,31.2,28.97,NNW,339,0.0,5.8,32,0.00,,---,0.00,VWS V14.01,2013-10-06 21:58:00,
2013-10-06 17:59:00,61.3,32.0,28.97,NW,323,3.1,5.4,33,0.00,,---,0.00,VWS V14.01,2013-10-06 21:59:00,
2013-10-06 18:01:00,59.4,54.9,28.70,WSW,256,0.0,5.8,85,0.00,,---,1.10,VWS V14.01,2013-10-06 22:01:00,
2013-10-06 18:02:00,61.2,31.9,28.97,WNW,286,4.5,5.8,33,0.00,,---,0.00,VWS V14.01,2013-10-06 22:02:00,
2013-10-06 18:03:00,61.2,31.9,28.97,NW,322,0.0,4.5,33,0.00,,---,0.00,VWS V14.01,2013-10-06 22:03:00,
2013-10-06 18:04:00,61.0,30.9,28.97,NW,320,4.9,6.3,32,0.00,,---,0.00,VWS V14.01,2013-10-06 22:04:00,
2013-10-06 18:05:00,61.0,30.9,28.97,NW,324,0.0,4.9,32,0.00,,---,0.00,VWS V14.01,2013-10-06 22:05:00,
2013-10-06 18:06:00,59.5,54.7,28.70,SSE,153,0.0,4.0,84,0.00,,---,1.10,VWS V14.01,2013-10-06 22:06:00,
2013-10-06 18:07:00,61.0,32.4,28.97,NW,324,0.0,3.1,34,0.00,,---,0.00,VWS V14.01,2013-10-06 22:07:00,
2013-10-06 18:10:00,61.0,31.7,28.97,WNW,294,0.0,3.1,33,0.00,,---,0.00,VWS V14.01,2013-10-06 22:10:00,
2013-10-06 18:11:00,59.4,54.2,28.70,South,182,0.0,0.0,83,0.00,,---,1.10,VWS V14.01,2013-10-06 22:11:00,
2013-10-06 18:12:00,61.0,32.4,28.97,WNW,294,3.1,3.1,34,0.00,,---,0.00,VWS V14.01,2013-10-06 22:12:00,
2013-10-06 18:13:00,61.0,32.4,28.97,WNW,294,0.0,3.1,34,0.00,,---,0.00,VWS V14.01,2013-10-06 22:13:00,
2013-10-06 18:14:00,60.8,32.3,28.97,WNW,294,0.0,0.0,34,0.00,,---,0.00,VWS V14.01,2013-10-06 22:14:00,
2013-10-06 18:16:00,58.8,53.3,28.70,SW,226,0.0,0.0,82,0.00,,---,1.10,VWS V14.01,2013-10-06 22:16:00,
2013-10-06 18:17:00,60.6,32.1,28.97,WNW,289,3.6,4.9,34,0.00,,---,0.00,VWS V14.01,2013-10-06 22:17:00,
2013-10-06 18:18:00,60.6,32.1,28.97,West,279,2.7,4.5,34,0.00,,---,0.00,VWS V14.01,2013-10-06 22:18:00,
2013-10-06 18:21:00,58.8,53.3,28.70,SW,234,0.0,0.0,82,0.00,,---,1.10,VWS V14.01,2013-10-06 22:21:00,
2013-10-06 18:23:00,60.1,31.6,28.97,NW,308,0.0,3.1,34,0.00,,---,0.00,VWS V14.01,2013-10-06 22:23:00,
2013-10-06 18:26:00,58.6,53.5,28.70,WSW,243,0.0,0.0,83,0.00,,---,1.10,VWS V14.01,2013-10-06 22:26:00,
2013-10-06 18:31:00,58.5,53.3,28.70,West,281,0.0,0.0,83,0.00,,---,1.10,VWS V14.01,2013-10-06 22:31:00,
2013-10-06 18:33:00,59.2,32.3,28.97,WNW,302,0.0,0.0,36,0.00,,---,0.00,VWS V14.01,2013-10-06 22:33:00,
2013-10-06 18:34:00,59.0,32.1,28.97,WNW,302,0.0,3.6,36,0.00,,---,0.00,VWS V14.01,2013-10-06 22:34:00,
2013-10-06 18:35:00,59.0,32.1,28.97,WNW,302,0.0,0.0,36,0.00,,---,0.00,VWS V14.01,2013-10-06 22:35:00,
2013-10-06 18:36:00,58.3,53.2,28.70,West,267,0.0,3.1,83,0.00,,---,1.10,VWS V14.01,2013-10-06 22:36:00,
2013-10-06 18:40:00,58.5,32.3,28.97,WNW,302,0.0,0.0,37,0.00,,---,0.00,VWS V14.01,2013-10-06 22:40:00,
2013-10-06 18:41:00,58.1,53.3,28.70,WSW,253,0.0,0.0,84,0.00,,---,1.10,VWS V14.01,2013-10-06 22:41:00,
2013-10-06 18:46:00,58.1,53.3,28.70,WSW,252,2.7,3.1,84,0.00,,---,1.10,VWS V14.01,2013-10-06 22:46:00,
2013-10-06 18:49:00,57.7,33.6,28.97,WNW,302,0.0,0.0,40,0.00,,---,0.00,VWS V14.01,2013-10-06 22:49:00,
2013-10-06 18:50:00,57.6,33.4,28.97,WNW,302,0.0,0.0,40,0.00,,---,0.00,VWS V14.01,2013-10-06 22:50:00,
2013-10-06 18:51:00,57.9,53.1,28.70,SSW,196,0.0,0.0,84,0.00,,---,1.10,VWS V14.01,2013-10-06 22:51:00,
2013-10-06 18:56:00,57.7,53.0,28.70,SSE,159,0.0,0.0,84,0.00,,---,1.10,VWS V14.01,2013-10-06 22:56:00,
2013-10-06 19:01:00,57.6,53.1,28.70,SSE,159,0.0,0.0,85,0.00,,---,1.10,VWS V14.01,2013-10-06 23:01:00,
2013-10-06 19:06:00,57.6,53.1,28.70,West,264,0.0,0.0,85,0.00,,---,1.10,VWS V14.01,2013-10-06 23:06:00,
2013-10-06 19:10:00,55.4,33.3,29.00,WNW,302,0.0,0.0,43,0.00,,---,0.00,VWS V14.01,2013-10-06 23:10:00,
2013-10-06 19:11:00,57.4,52.9,28.70,SE,138,0.0,3.6,85,0.00,,---,1.10,VWS V14.01,2013-10-06 23:11:00,
2013-10-06 19:14:00,55.0,33.0,29.00,WNW,302,0.0,0.0,43,0.00,,---,0.00,VWS V14.01,2013-10-06 23:14:00,
2013-10-06 19:16:00,57.2,52.7,28.70,SE,138,0.0,0.0,85,0.00,,---,1.10,VWS V14.01,2013-10-06 23:16:00,
2013-10-06 19:21:00,57.2,53.1,28.70,SE,138,0.0,0.0,86,0.00,,---,1.10,VWS V14.01,2013-10-06 23:21:00,
2013-10-06 19:26:00,57.0,52.9,28.70,SE,138,0.0,0.0,86,0.00,,---,1.10,VWS V14.01,2013-10-06 23:26:00,
2013-10-06 19:31:00,56.8,52.7,28.70,SE,138,0.0,2.7,86,0.00,,---,1.10,VWS V14.01,2013-10-06 23:31:00,
2013-10-06 19:36:00,56.7,52.8,28.70,SE,138,0.0,0.0,87,0.00,,---,1.10,VWS V14.01,2013-10-06 23:36:00,
2013-10-06 19:37:00,52.7,33.0,29.00,WNW,302,0.0,0.0,47,0.00,,---,0.00,VWS V14.01,2013-10-06 23:37:00,
2013-10-06 19:38:00,52.7,33.6,29.00,WNW,302,0.0,0.0,48,0.00,,---,0.00,VWS V14.01,2013-10-06 23:38:00,
2013-10-06 19:43:00,56.5,52.7,28.70,SE,138,0.0,0.0,87,0.00,,---,1.10,VWS V14.01,2013-10-06 23:43:00,
2013-10-06 19:49:00,56.3,52.8,28.70,SSE,151,0.0,3.6,88,0.00,,---,1.10,VWS V14.01,2013-10-06 23:49:00,
2013-10-06 19:54:00,56.3,52.8,28.70,West,260,0.0,4.5,88,0.00,,---,1.10,VWS V14.01,2013-10-06 23:54:00,
2013-10-06 19:58:00,51.4,33.9,29.00,WNW,302,0.0,0.0,51,0.00,,---,0.00,VWS V14.01,2013-10-06 23:58:00,
2013-10-06 20:01:00,56.1,52.9,28.70,SSE,166,0.0,0.0,89,0.00,,---,1.10,VWS V14.01,2013-10-07 00:01:00,
2013-10-06 20:03:00,51.1,34.1,29.00,WNW,302,0.0,0.0,52,0.00,,---,0.00,VWS V14.01,2013-10-07 00:03:00,
2013-10-06 20:09:00,56.1,53.2,28.70,SSE,160,0.0,0.0,90,0.00,,---,1.10,VWS V14.01,2013-10-07 00:09:00,
2013-10-06 20:10:00,50.5,34.5,29.00,WNW,302,0.0,0.0,54,0.00,,---,0.00,VWS V14.01,2013-10-07 00:10:00,
2013-10-06 20:12:00,50.4,34.4,29.03,WNW,302,0.0,0.0,54,0.00,,---,0.00,VWS V14.01,2013-10-07 00:12:00,
2013-10-06 20:14:00,50.4,34.4,29.03,WNW,302,0.0,0.0,54,0.00,,---,0.00,VWS V14.01,2013-10-07 00:14:00,
2013-10-06 20:15:00,56.1,53.2,28.70,WNW,299,0.0,2.7,90,0.00,,---,1.10,VWS V14.01,2013-10-07 00:15:00,
2013-10-06 20:17:00,50.2,34.7,29.03,WNW,302,0.0,0.0,55,0.00,,---,0.00,VWS V14.01,2013-10-07 00:17:00,
2013-10-06 20:23:00,56.1,53.5,28.73,WSW,256,0.0,0.0,91,0.00,,---,1.10,VWS V14.01,2013-10-07 00:23:00,
2013-10-06 20:28:00,56.1,53.5,28.73,WSW,255,4.5,4.5,91,0.00,,---,1.10,VWS V14.01,2013-10-07 00:28:00,
2013-10-06 20:31:00,49.6,35.0,29.03,WNW,302,0.0,0.0,57,0.00,,---,0.00,VWS V14.01,2013-10-07 00:31:00,
2013-10-06 20:32:00,49.6,35.0,29.03,WNW,302,0.0,0.0,57,0.00,,---,0.00,VWS V14.01,2013-10-07 00:32:00,
2013-10-06 20:33:00,49.5,35.3,29.03,WNW,302,0.0,0.0,58,0.00,,---,0.00,VWS V14.01,2013-10-07 00:33:00,
2013-10-06 20:34:00,49.5,35.3,29.03,WNW,302,0.0,0.0,58,0.00,,---,0.00,VWS V14.01,2013-10-07 00:34:00,
2013-10-06 20:35:00,49.5,35.3,29.03,WNW,302,0.0,0.0,58,0.00,,---,0.00,VWS V14.01,2013-10-07 00:35:00,
2013-10-06 20:36:00,49.5,35.3,29.03,WNW,302,0.0,0.0,58,0.00,,---,0.00,VWS V14.01,2013-10-07 00:36:00,
2013-10-06 20:37:00,56.1,53.8,28.73,WSW,251,0.0,0.0,92,0.00,,---,1.10,VWS V14.01,2013-10-07 00:37:00,
2013-10-06 20:41:00,49.3,35.6,29.03,WNW,302,0.0,0.0,59,0.00,,---,0.00,VWS V14.01,2013-10-07 00:41:00,
2013-10-06 20:42:00,49.3,35.6,29.03,WNW,302,0.0,0.0,59,0.00,,---,0.00,VWS V14.01,2013-10-07 00:42:00,
2013-10-06 20:47:00,56.1,53.8,28.70,SSW,201,0.0,0.0,92,0.00,,---,1.10,VWS V14.01,2013-10-07 00:47:00,
2013-10-06 20:58:00,56.3,54.0,28.70,South,183,4.5,6.7,92,0.00,,---,1.10,VWS V14.01,2013-10-07 00:58:00,
2013-10-06 21:10:00,55.0,49.0,28.73,NW,319,7.4,13.4,80,0.00,,---,1.10,VWS V14.01,2013-10-07 01:10:00,
2013-10-06 21:17:00,55.0,39.7,28.73,NNW,341,4.5,8.7,56,0.00,,---,1.10,VWS V14.01,2013-10-07 01:17:00,
2013-10-06 21:25:00,54.5,37.2,28.73,North,8,6.3,12.5,52,0.04,,---,1.14,VWS V14.01,2013-10-07 01:25:00,
2013-10-06 21:30:00,54.3,36.1,28.73,WNW,291,10.5,10.5,50,0.04,,---,1.14,VWS V14.01,2013-10-07 01:30:00,
2013-10-06 21:36:00,54.1,37.4,28.76,WSW,248,4.0,8.3,53,0.04,,---,1.14,VWS V14.01,2013-10-07 01:36:00,
2013-10-06 21:41:00,54.0,36.8,28.76,West,270,7.8,11.0,52,0.04,,---,1.14,VWS V14.01,2013-10-07 01:41:00,
2013-10-06 21:47:00,53.8,36.1,28.76,NW,305,10.1,14.3,51,0.04,,---,1.14,VWS V14.01,2013-10-07 01:47:00,
2013-10-06 21:53:00,53.4,34.2,28.76,West,279,6.9,8.3,48,0.04,,---,1.14,VWS V14.01,2013-10-07 01:53:00,
2013-10-06 21:59:00,53.1,33.9,28.76,NNE,15,0.0,7.8,48,0.04,,---,1.14,VWS V14.01,2013-10-07 01:59:00,
2013-10-06 22:04:00,52.9,34.3,28.76,NW,315,5.8,5.8,49,0.04,,---,1.14,VWS V14.01,2013-10-07 02:04:00,
2013-10-06 22:10:00,52.5,34.4,28.76,NW,322,6.3,10.1,50,0.04,,---,1.14,VWS V14.01,2013-10-07 02:10:00,
2013-10-06 22:15:00,52.3,34.8,28.76,West,279,4.9,7.4,51,0.04,,---,1.14,VWS V14.01,2013-10-07 02:15:00,
2013-10-06 22:20:00,52.0,34.4,28.76,NW,324,0.0,6.9,51,0.00,,---,1.14,VWS V14.01,2013-10-07 02:20:00,
2013-10-06 22:25:00,51.6,35.5,28.76,WSW,244,6.3,6.3,54,0.00,,---,1.14,VWS V14.01,2013-10-07 02:25:00,
2013-10-06 22:30:00,51.3,34.7,28.76,NW,326,4.9,9.6,53,0.00,,---,1.14,VWS V14.01,2013-10-07 02:30:00,
2013-10-06 22:35:00,51.3,33.3,28.76,North,351,0.0,5.4,50,0.00,,---,1.14,VWS V14.01,2013-10-07 02:35:00,
2013-10-06 22:40:00,50.9,31.9,28.76,WNW,286,4.9,6.7,48,0.00,,---,1.14,VWS V14.01,2013-10-07 02:40:00,
2013-10-06 22:45:00,50.7,32.8,28.76,WNW,292,3.6,5.4,50,0.00,,---,1.14,VWS V14.01,2013-10-07 02:45:00,
2013-10-06 22:50:00,50.4,31.4,28.76,West,280,5.8,5.8,48,0.00,,---,1.14,VWS V14.01,2013-10-07 02:50:00,
2013-10-06 22:55:00,50.2,31.8,28.76,WNW,283,7.4,7.8,49,0.00,,---,1.14,VWS V14.01,2013-10-07 02:55:00,
2013-10-06 23:00:00,50.0,31.1,28.76,West,278,6.3,8.3,48,0.00,,---,1.14,VWS V14.01,2013-10-07 03:00:00,
2013-10-06 23:05:00,49.8,31.4,28.76,West,274,2.7,3.1,49,0.00,,---,1.14,VWS V14.01,2013-10-07 03:05:00,
2013-10-06 23:10:00,49.3,31.9,28.76,WNW,297,6.3,6.3,51,0.00,,---,1.14,VWS V14.01,2013-10-07 03:10:00,
2013-10-06 23:15:00,48.9,32.6,28.76,WNW,289,3.1,5.4,53,0.00,,---,1.14,VWS V14.01,2013-10-07 03:15:00,
2013-10-06 23:20:00,48.7,33.3,28.76,West,272,0.0,5.8,55,0.00,,---,1.14,VWS V14.01,2013-10-07 03:20:00,
2013-10-06 23:25:00,48.7,34.2,28.76,WNW,301,0.0,4.0,57,0.00,,---,1.14,VWS V14.01,2013-10-07 03:25:00,
2013-10-06 23:30:00,48.7,34.2,28.76,WNW,300,0.0,0.0,57,0.00,,---,1.14,VWS V14.01,2013-10-07 03:30:00,
2013-10-06 23:35:00,48.7,35.5,28.76,WNW,300,0.0,0.0,60,0.00,,---,1.14,VWS V14.01,2013-10-07 03:35:00,
2013-10-06 23:40:00,48.4,35.6,28.76,WSW,247,0.0,5.4,61,0.00,,---,1.14,VWS V14.01,2013-10-07 03:40:00,
2013-10-06 23:45:00,48.2,35.0,28.76,West,263,0.0,0.0,60,0.00,,---,1.14,VWS V14.01,2013-10-07 03:45:00,
2013-10-06 23:50:00,47.8,35.1,28.76,West,263,0.0,0.0,61,0.00,,---,1.14,VWS V14.01,2013-10-07 03:50:00,
2013-10-06 23:55:00,47.5,35.5,28.76,West,267,0.0,0.0,63,0.00,,---,1.14,VWS V14.01,2013-10-07 03:55:00,
2013-10-06 23:56:00,46.6,41.7,29.09,WNW,302,0.0,0.0,83,0.00,,---,0.00,VWS V14.01,2013-10-07 03:56:00,
2013-10-06 23:57:00,46.8,41.9,29.09,WNW,302,0.0,2.7,83,0.00,,---,0.00,VWS V14.01,2013-10-07 03:57:00,
2013-10-06 23:58:00,46.8,41.9,29.09,WNW,302,0.0,0.0,83,0.00,,---,0.00,VWS V14.01,2013-10-07 03:58:00,
2013-10-06 23:59:00,46.8,42.2,29.09,WNW,302,0.0,0.0,84,0.00,,---,0.00,VWS V14.01,2013-10-07 03:59:00,